Showing default

NEXSAT-1, 58921

Orbit data source: Space-Track

NEXSAT-1, 58921 is a payload satellite owned by EgSA (EG) in SSO that was launched on Sat, 03 Feb 2024 UTC via a JIELONG-3 launch vehicle from the South China Sea Launch Area (SCSLA). Payload-class satellites include a variety of spacecraft equipped with specific instruments for various scientific and technological missions. These include communications satellites like Starlink; space stations such as the ISS; scientific satellites like the Hubble; Earth observation satellites from companies like Planet Labs, Umbra, and HawkEye 360; GPS; miniature CubeSats for education and research; and military/defense satellites.

Loading next visibility...
Identifier
58921, 2024-024E
Orbit
SSO
Country
Flag of EGEG / EGYP
Related business
Manufacturer
Berlin Space T.
Mission
Operational Civil Imaging
Bus & Motor
LEOS-50, Unknown motor
Mass
65 kg wet, 65 kg dry
Launch date (UTC)
2024-02-03 (2 years ago)
Launch vehicle
JIELONG-3
Launch site
South China Sea Launch Area (SCSLA)
Object type
Payload
Rocket body
Debris
Shape & HBR
Box, 0.2 m
Radar Cross Section
0.100 m², Medium (>0.1 m² and < 1m²)

Expand to show TLE details & history
Last TLE update: 21 hours ago

TLE from 21 hours ago
0 NEXSAT-1
1 58921U 24024E   26172.54420190  .00005458  00000-0  17019-3 0  9993
2 58921  97.3047 246.5535 0009717 100.6535 259.5802 15.33608087132560
Epoch: 2026-06-21T13:03Z
TLE epoch observation values (Epoch: 2026-06-21T13:03:39.044Z)
Latitude
-0.00006°
Longitude
140.89787°
Altitude
469.379 km
Speed
7.631 km/s
True Right ascension
16h 26m 12s
True Declination
0° 00' 00"
Sunlit
Object was in full shadow at epoch
Visualization orbit readout
Latitude
Unknown
Longitude
Unknown
Altitude
Unknown
Speed
Unknown
Apparent Right ascension
Unknown
Apparent Declination
Unknown
Sunlit
N/A
Visualization observer readout
Local Sidereal Time
21:34:40
Azimuth
Unknown
Elevation
Unknown
Doppler factor
Unknown
Orbital elements
Apogee altitude
468.648 km
Perigee altitude
455.355 km
Semi-major axis
6,840.138 km
Eccentricity
0.00097
Inclination
97.3047°
RAAN
246.5535°
Arg. of periapsis
100.6535°
True anomaly
259.47071°
Mean anomaly
259.5802°
Eccentric anomaly
259.52545°
Mean motion
3.83659 °/min
Orbital period
93.83 mins
BSTAR
0.00017019
Loading maneuver chart data...
Computing Atmospheric mass density...
Loading historical data...
Loading historical data...
Loading historical data...
Loading historical data...
Loading historical data...
Loading historical data...
Loading historical data...

Documentation

Showing up to 5 results
|